Time,TemperatureF,DewpointF,PressureIn,WindDirection,WindDirectionDegrees,WindSpeedMPH,WindSpeedGustMPH,Humidity,HourlyPrecipIn,Conditions,Clouds,dailyrainin,SoftwareType,DateUTC
2013-03-27 00:00:00,34.0,26.0,-100.00,North,-999,-999.0,-999.0,71,-99.99,,,0.00,,2013-03-27 07:00:00,
2013-03-27 00:53:00,34.0,26.0,-100.00,North,-999,-999.0,-999.0,71,-99.99,,,0.00,,2013-03-27 07:53:00,
2013-03-27 01:00:00,34.0,26.0,-100.00,NW,305,0.0,1.0,72,-99.99,,,0.00,,2013-03-27 08:00:00,
2013-03-27 02:00:00,34.0,26.0,-100.00,NW,305,0.0,1.0,74,-99.99,,,0.00,,2013-03-27 09:00:00,
2013-03-27 03:00:00,34.0,27.0,-100.00,NW,311,0.0,0.0,75,-99.99,,,-99.99,,2013-03-27 10:00:00,
2013-03-27 04:00:00,33.0,26.0,-100.00,ESE,108,0.0,1.0,76,-99.99,,,0.00,,2013-03-27 11:00:00,
2013-03-27 05:00:00,34.0,28.0,-100.00,WNW,295,0.0,1.0,80,-99.99,,,0.00,,2013-03-27 12:00:00,
2013-03-27 06:00:00,35.0,26.0,-100.00,North,2,1.0,3.0,71,-99.99,,,0.00,,2013-03-27 13:00:00,
2013-03-27 07:00:00,35.0,25.0,-100.00,WNW,295,0.0,2.0,68,-99.99,,,0.00,,2013-03-27 14:00:00,
2013-03-27 07:52:00,35.0,25.0,-100.00,North,-999,-999.0,-999.0,68,-99.99,,,0.00,,2013-03-27 14:52:00,
2013-03-27 08:00:00,36.0,26.0,-100.00,WSW,249,0.0,1.0,67,-99.99,,,0.00,,2013-03-27 15:00:00,
2013-03-27 10:00:00,41.0,-99.9,-100.00,North,-999,-999.0,-999.0,-999,-99.99,,,0.00,,2013-03-27 17:00:00,
2013-03-27 11:00:00,41.0,29.0,-100.00,South,170,1.0,2.0,62,-99.99,,,0.00,,2013-03-27 18:00:00,
2013-03-27 11:53:00,41.0,29.0,-100.00,North,-999,-999.0,-999.0,62,-99.99,,,0.00,,2013-03-27 18:53:00,
2013-03-27 12:00:00,40.0,27.0,-100.00,SSE,158,1.0,4.0,59,-99.99,,,0.00,,2013-03-27 19:00:00,
2013-03-27 12:52:00,40.0,27.0,-100.00,North,-999,-999.0,-999.0,59,-99.99,,,0.00,,2013-03-27 19:52:00,
2013-03-27 13:00:00,39.0,28.0,-100.00,SE,135,1.0,3.0,63,-99.99,,,0.00,,2013-03-27 20:00:00,
2013-03-27 14:00:00,38.0,29.0,-100.00,SE,144,1.0,2.0,71,-99.99,,,0.00,,2013-03-27 21:00:00,
2013-03-27 15:00:00,36.0,33.0,-100.00,SSW,212,0.0,2.0,87,-99.99,,,0.00,,2013-03-27 22:00:00,
2013-03-27 16:00:00,37.0,33.0,-100.00,North,352,1.0,2.0,84,-99.99,,,0.00,,2013-03-27 23:00:00,
2013-03-27 16:52:00,37.0,33.0,-100.00,North,-999,-999.0,-999.0,84,-99.99,,,0.00,,2013-03-27 23:52:00,
2013-03-27 17:00:00,38.0,31.0,-100.00,NNW,335,1.0,3.0,77,-99.99,,,0.00,,2013-03-28 00:00:00,
2013-03-27 17:43:00,38.0,31.0,-100.00,NNW,335,1.0,3.0,77,-99.99,,,0.00,,2013-03-28 00:43:00,
2013-03-27 17:52:00,38.0,31.0,-100.00,NNW,335,1.0,3.0,77,-99.99,,,0.00,,2013-03-28 00:52:00,
2013-03-27 18:00:00,38.0,32.0,-100.00,ESE,108,1.0,3.0,77,-99.99,,,0.00,,2013-03-28 01:00:00,
2013-03-27 19:00:00,37.0,31.0,-100.00,NNW,330,0.0,2.0,79,-99.99,,,0.00,,2013-03-28 02:00:00,
2013-03-27 20:00:00,33.0,29.0,-100.00,WNW,300,1.0,1.0,87,-99.99,,,0.00,,2013-03-28 03:00:00,
2013-03-27 21:00:00,33.0,29.0,-100.00,NW,315,0.0,1.0,86,-99.99,,,0.00,,2013-03-28 04:00:00,
2013-03-27 21:52:00,33.0,29.0,-100.00,NW,315,0.0,1.0,86,-99.99,,,0.00,,2013-03-28 04:52:00,
2013-03-27 22:00:00,32.0,29.0,-100.00,NW,308,0.0,1.0,89,-99.99,,,0.00,,2013-03-28 05:00:00,
2013-03-27 22:52:00,32.0,29.0,-100.00,NW,308,0.0,1.0,89,-99.99,,,0.00,,2013-03-28 05:52:00,
2013-03-27 23:00:00,32.0,29.0,-100.00,NW,319,0.0,1.0,88,-99.99,,,-99.99,,2013-03-28 06:00:00,